Weather Roundup
Issued by NWS Chicago, IL

Home | Current Version | Previous Version | Graphics & Text | Print | Product List | Glossary On
Versions: 1 2 3 4 5 6 7 8 9 10 11 12 13 14 15 16 17 18 19 20 21 22 23 24 25 26 27 28 29 30 31 32 33 34 35 36 37 38 39 40 41 42 43 44 45 46 47 48 49 50
000
NZUS59 KLOT 210910
HRRLOT

CHICAGO AREA WEATHER ROUNDUP
NATIONAL WEATHER SERVICE CHICAGO/ROMEOVILLE IL
300 AM CST SUN DEC 21 2014

NOTE: "FAIR" INDICATES FEW OR NO CLOUDS BELOW 12,000 FEET WITH NO
SIGNIFICANT WEATHER AND/OR OBSTRUCTIONS TO VISIBILITY.

* THESE STATIONS ARE NOT UNDER NWS QUALITY CONTROL. THEY ALSO MAY NOT
  REPORT WEATHER SUCH AS PRECIPITATION OR FOG.

ILZ005-006-012>014-019>023-211000-
NORTHEAST ILLINOIS

CITY           SKY/WX    TMP DP  RH WIND       PRES   REMARKS
OHARE          CLOUDY    32  26  78 S7        30.23S WCI  26
MIDWAY         CLOUDY    34  27  75 S7        30.24F WCI  28
AURORA         CLOUDY    33  27  78 SE8       30.23S HAZE    WCI  26
LANSING*       CLOUDY    32  27  82 S8        30.26S WCI  25
JOLIET*        CLOUDY    32  28  84 SE5       30.24F WCI  27
WAUKEGAN       CLOUDY    32  26  78 S6        30.22S WCI  26
DUPAGE AIRPORT CLOUDY    32  27  81 S7        30.22S WCI  26
WHEELING       CLOUDY    32  26  78 S6        30.25S WCI  26
KANKAKEE*      CLOUDY    31  27  84 S7        30.26F WCI  25
MORRIS*        CLOUDY    32  30  93 S6        30.23S WCI  26
LEWIS AIRPORT* CLOUDY    32  28  86 S7        30.24S WCI  26
NORTHERLY IS     N/A     33  26  76 S8          N/A  WCI  26
$$

WIZ051-052-058>065-066-070>072-211000-
SOUTHEAST WISCONSIN

CITY           SKY/WX    TMP DP  RH WIND       PRES   REMARKS
MILWAUKEE      CLOUDY    32  25  75 S6        30.22S WCI  26
KENOSHA*       CLOUDY    32  27  81 S5        30.22S WCI  27
RACINE*        CLOUDY    32  26  78 S5        30.24S WCI  27
BURLINGTON     CLOUDY    30  26  87 CALM      30.21F
WAUKESHA       CLOUDY    30  27  86 S6        30.20F WCI  24
WEST BEND      CLOUDY    30  27  86 CALM      30.20S
$$

INZ001>003-010>013-019-020-211000-
NORTHWEST INDIANA

CITY           SKY/WX    TMP DP  RH WIND       PRES   REMARKS
GARY*          CLOUDY    34  24  67 S5        30.26F WCI  30
MICHIGAN CITY* NOT AVBL
RENSSELAER*    NOT AVBL
VALPARAISO     CLOUDY    30  26  85 S6        30.26F WCI  24
$$

LMZ740>746-211000-
SOUTHERN LAKE MICHIGAN

STATION/POSITION TIME  SKY/WX   TEMP WIND        PRES    VSBY
                                AIR  DIR/SP/G
                 (UTC)          (F)  (DEG/KT/KT) (MB)    (MI)
HARRISON CRIB    0900            33  190/ 13/ 14   N/A
BURNHAM HARBOR   0900            33  200/  7/  9   N/A
CALUMET HARBOR   0900            33  170/  7/ 10 1023.0S
BURNS HARBOR     NOT AVBL
MICHIGAN CITY    NOT AVBL
$$

ABBREVIATIONS USED IN REMARKS
   TC - TEMPERATURE IN CELSIUS
  WCI - WIND CHILL INDEX
   HX - HEAT INDEX
  VSB - VISIBILITY
$$



USA.gov is the U.S. government's official web portal to all federal, state and local government web resources and services.